Location: Mount Kobau Star Party
(49.1167°N, 119.7333°W)
Time: 11:30:08
(UTC-07:00)

ARIANE 6 FM1 Upper Stage - Pass Details

Date: 12 April 2026
Orbit: 526 x 601 km, 62.0° (Epoch: 18 May)

Event Time Altitude Azimuth Distance (km) Brightness Sun altitude
Rises 03:33:49 0° 315° (NW) 2,670 6.2 -23.0°
Reaches altitude 10° 03:36:01 10° 317° (NW) 1,774 5.2 -22.8°
Maximum altitude 03:39:59 83° 43° (NE) 535 2.5 -22.3°
Drops below altitude 10° 03:43:58 10° 134° (SE) 1,767 5.2 -21.9°
Sets 03:46:09 0° 135° (SE) 2,658 6.1 -21.6°
